Temp_Advection
nan nan nan nan nan nan nan nan nan nan nan nan nan nan nan nan nan nan nan nan nan nan nan nan nan nan nan nan nan nan nan nan nan nan nan nan nan nan nan nan nan nan nan nan nan
nan -0 -0 -0 -0 -0 -0 -0 -0 -0 -0 -0 -0 -0 -0 -0 -0 -0 -0 0 0 0 -0 0 0 0 -0 -0 -0 0 -0 -0 0 -0 0 -0 -0 -0 -0 -1 -1 -1 -0 -0 nan
nan -0 -0 -0 -0 -0 -0 -0 -0 -0 -0 -0 -0 -0 -0 -0 -0 -0 0 0 -0 0 -0 -0 -0 -0 -0 -0 -0 0 -0 -0 -0 -0 -0 -0 -0 -0 0 -0 -1 -0 -0 -0 nan
nan -0 -0 -0 -0 -0 -0 -0 -0 -0 -0 -0 -0 -0 -0 -0 -0 0 -0 -0 -0 -0 -0 -0 -0 -0 -0 -0 -0 -0 -1 -0 -0 -0 -0 0 -0 -0 -0 -0 -1 -0 -0 -0 nan
nan -0 -0 -0 -0 -0 -0 -0 -0 -0 -0 -0 -0 -0 -0 -0 -0 -0 -0 -0 -0 -0 -0 -0 -0 -0 -0 -0 0 0 -0 -0 -0 -0 -0 0 0 0 -0 -0 -0 -0 -0 -0 nan
nan -0 -0 -0 -0 -0 -0 -0 -0 -0 -0 -0 -0 0 -0 0 0 -0 -0 -0 -0 -0 -0 -0 -0 -0 -0 -0 -0 -0 -1 -1 -0 -0 -0 -0 -0 -0 -0 -0 -0 -0 -0 -0 nan
nan -0 -0 -0 -0 -0 -0 -0 -0 -0 -0 -0 -0 0 -0 0 -0 -0 -0 -0 -0 -0 -0 -0 0 -0 -0 -0 -0 -0 -0 -1 -1 -0 -0 0 0 -0 -1 -0 -0 -0 -0 0 nan
nan -0 -0 -0 -0 -0 -0 -0 -0 -0 -0 -0 -0 -0 0 0 -0 -0 -0 0 -0 -0 -0 -0 0 -0 -0 -0 -0 -0 0 -0 -1 -0 0 0 0 -1 -1 -0 -1 -1 -1 -2 nan
nan -0 -0 -0 -0 -0 -0 -0 -0 -0 -0 -0 -0 -0 0 0 -0 -0 -0 -0 -0 -0 -0 -0 -0 -0 0 0 -0 0 0 -0 -0 -1 -1 -1 -1 -1 -1 -1 -1 -1 -1 -1 nan
nan -0 -0 -0 -0 -0 -0 -0 -0 -0 -0 -0 -0 0 0 0 -0 -0 -0 -0 -0 0 -0 -0 -0 0 0 0 0 -0 -0 -0 -1 -1 -1 -1 -1 -1 -2 -1 -2 -2 -2 -3 nan
nan -0 -0 -0 -0 -0 -0 -0 -0 -0 -0 0 0 0 -0 0 -0 -0 -0 -0 -0 0 -0 -0 -0 0 -0 -0 -0 -0 -0 -1 -1 -0 -0 -1 -1 -1 -1 -1 -1 -2 -2 -4 nan
nan -0 -0 -0 -0 -0 -0 -0 -0 0 -0 -0 0 0 0 0 0 -0 0 0 -0 -0 -0 0 0 0 -0 -0 -0 -0 -0 -1 -1 -0 -0 -0 -1 -2 -1 -1 0 0 -5 -4 nan
nan -0 -0 -0 -0 -0 -0 -0 -0 0 0 0 0 0 0 0 -0 -0 -0 -0 -0 -0 -0 -0 -0 -0 -0 -0 0 0 0 -0 -1 -2 -1 -0 -1 -1 -0 -1 -2 -6 -2 -2 nan
nan -0 -0 -0 -0 -0 -0 -0 -0 -0 -0 -0 0 0 0 0 -0 -0 -0 0 0 -0 -0 -0 0 -0 -0 -0 0 -0 0 0 0 -0 -0 -0 -1 -2 -1 0 -4 -2 -2 -1 nan
nan -0 -0 -0 0 -0 -0 -0 -0 0 -0 0 -0 -0 0 0 -0 -0 0 -0 -0 -0 0 -0 -0 -0 -0 -0 0 0 -0 -0 0 1 -0 -0 -0 -1 -2 -2 -1 -1 -1 -1 nan
nan -0 -0 -0 -0 -0 -0 -0 -0 0 0 0 0 -0 -0 0 -0 0 -0 -0 0 -0 0 -0 -0 0 -0 -0 -0 0 0 -1 -0 1 -0 -1 -0 -0 -1 -1 -0 -1 -1 -1 nan
nan -0 -0 -0 0 -0 -0 -0 -0 -0 -0 -0 -0 0 0 0 0 0 0 -0 -0 -0 0 -0 1 0 -0 0 -0 -0 -1 -0 -0 -0 -1 -0 0 -1 -0 -0 -0 -0 -1 -1 nan
nan -0 -0 -0 -0 -0 0 0 -0 -0 -0 -0 -0 0 0 0 0 0 0 0 -0 -0 -0 -0 -0 0 0 -0 0 0 -0 -0 -0 -0 -1 -0 1 -0 0 -0 -0 -0 -1 -1 nan
nan -0 -0 -0 -0 0 0 -0 -0 -0 -0 -0 0 -0 -0 -0 0 0 0 0 -0 0 -0 -0 -0 0 -0 0 -0 0 0 0 0 -0 -0 1 -0 -0 -0 -0 -0 -1 -1 -1 nan
nan -0 0 -0 -0 0 -0 -0 -0 -0 -0 -0 -0 -0 0 0 -0 0 0 -0 -0 -0 -0 0 -0 -1 -0 0 1 0 -0 -0 -0 -0 -0 -0 0 -0 -1 -0 -1 -0 -0 -0 nan
nan -0 -0 0 0 -0 -0 -0 -0 -0 -0 0 -0 -0 0 0 0 0 0 0 -0 -0 0 -0 0 -0 -0 0 0 0 0 0 -0 -0 0 -1 0 0 -0 0 -0 -0 -0 -0 nan
nan -0 0 -0 -0 -0 0 -0 -0 -0 0 0 0 0 -0 -0 -0 0 0 -0 0 -0 0 0 0 -0 -0 -0 -0 -0 0 -0 0 -0 0 0 -0 -0 0 0 0 0 -0 -0 nan
nan -0 0 0 -0 -0 -0 0 -0 0 0 0 0 -0 -0 0 -0 -0 -0 -0 -0 0 -0 -0 0 -0 0 -0 0 0 0 -0 -0 -0 0 -0 -0 0 -0 -1 -1 -0 -0 -0 nan
nan -0 0 0 -0 0 -0 -0 0 0 -0 -0 0 0 0 0 0 0 -0 0 0 0 -0 -0 0 -0 0 -0 -0 0 -0 0 0 0 0 0 -0 -0 -1 -1 -1 -0 -0 -0 nan
nan -0 0 -0 -0 -0 -0 -0 0 -0 -0 0 0 0 0 -0 -0 -0 -0 0 0 0 1 0 0 -0 -1 0 0 -0 -0 0 0 0 0 0 -0 -0 0 -0 -0 -0 -0 -0 nan
nan -0 -0 -0 -0 -0 -0 0 -0 0 0 0 0 0 1 0 -0 -0 -1 -0 -0 0 0 0 0 -0 -0 -0 0 -0 -0 -0 0 0 0 -0 -0 -0 0 0 -0 -0 -0 -0 nan
nan nan nan nan nan nan nan nan nan nan nan nan nan nan nan nan nan nan nan nan nan nan nan nan nan nan nan nan nan nan nan nan nan nan nan nan nan nan nan nan nan nan nan nan nan
Wind_Speed
14 14 13 13 13 13 12 11 11 10 10 9 8 6 4 7 11 6 6 7 6 7 9 8 5 2 1 2 1 2 2 4 6 7 4 6 4 7 9 11 10 7 9 11 15
10 11 12 13 14 15 15 14 13 12 11 9 7 5 2 6 8 11 7 4 3 4 9 3 0 2 4 3 3 3 3 3 3 2 4 9 9 12 10 15 16 17 13 12 11
12 14 14 15 16 17 16 15 14 13 11 10 8 5 1 3 3 5 8 4 3 2 3 3 2 2 7 8 7 5 4 3 10 16 14 11 12 13 16 7 14 14 17 14 14
13 15 16 16 16 16 15 14 13 12 11 9 7 4 4 1 1 8 8 7 5 4 4 3 3 5 4 7 12 6 16 16 17 15 14 10 17 16 20 27 23 23 22 22 21
13 14 15 15 15 16 15 13 13 12 10 8 5 3 2 3 0 10 7 6 6 6 4 1 3 7 6 6 9 9 11 19 20 17 16 17 16 12 21 26 26 23 22 23 21
13 14 15 16 16 16 16 15 13 11 9 5 2 0 2 2 4 9 6 5 5 4 4 2 3 5 7 10 8 12 14 16 17 22 22 19 20 19 19 23 26 25 25 21 19
12 13 14 15 16 16 16 16 15 11 8 5 0 2 2 6 3 7 4 6 6 4 2 2 3 3 5 6 8 11 8 10 19 18 12 10 6 12 22 19 17 14 14 18 17
13 14 15 16 16 17 16 17 15 10 8 5 2 2 2 5 4 6 2 1 4 5 2 2 2 4 6 6 6 5 7 4 8 13 7 10 9 12 19 15 19 22 26 29 24
14 15 16 16 17 18 18 17 13 9 6 3 2 1 0 3 1 6 6 1 3 5 3 1 3 5 4 4 5 8 5 9 8 12 15 10 16 7 19 25 24 25 26 29 35
14 16 17 18 18 18 17 16 9 7 4 4 3 1 1 1 5 5 4 1 3 3 2 1 4 4 5 5 4 5 6 7 11 11 20 20 27 11 21 27 27 27 28 29 31
16 17 17 18 18 18 16 12 7 1 5 1 2 2 1 3 3 7 5 4 3 3 3 2 2 6 6 6 6 6 9 14 13 12 15 16 24 17 18 24 24 28 31 26 29
18 18 18 18 17 15 13 5 4 6 7 8 5 3 0 3 2 9 3 1 3 2 3 3 4 6 4 6 8 8 10 13 14 7 16 12 24 26 17 22 28 18 23 29 31
19 18 17 17 16 10 11 8 7 6 5 4 3 3 1 2 3 6 6 2 3 4 5 3 6 2 1 4 6 6 6 8 14 15 10 12 21 15 6 22 22 27 25 28 31
19 19 17 14 8 11 7 10 8 8 3 6 4 2 2 4 2 3 6 4 4 2 4 8 5 2 4 6 7 9 6 9 10 9 3 11 10 19 13 4 18 26 28 30 33
18 17 16 12 7 5 8 8 8 4 5 6 4 2 2 2 4 1 4 1 2 5 2 2 2 4 5 6 7 3 7 8 9 9 7 9 5 12 10 11 15 22 27 29 31
17 16 13 8 7 4 5 4 3 1 8 3 4 4 3 3 3 0 1 4 0 3 6 9 4 3 3 5 4 7 7 8 10 8 5 16 13 1 4 7 12 20 24 27 30
16 16 11 5 3 5 3 3 2 4 4 3 2 3 2 3 4 2 2 2 2 1 2 3 10 5 4 4 4 2 6 3 4 1 7 5 10 5 5 7 12 17 26 28 30
16 15 10 7 4 2 1 3 6 5 4 3 1 4 4 2 3 3 3 3 1 1 3 2 2 6 6 3 3 5 5 4 4 3 8 17 5 2 5 14 16 18 21 26 31
16 12 8 7 4 3 2 4 4 4 2 1 3 4 5 4 2 3 7 2 5 4 3 2 4 6 2 5 5 1 3 1 2 8 7 7 3 4 5 6 17 21 24 28 32
15 8 6 7 1 5 4 6 2 3 2 0 3 3 5 4 6 6 3 5 4 2 2 2 3 6 5 4 7 5 2 2 2 3 5 5 8 3 10 12 13 18 25 29 33
10 6 5 3 0 4 3 3 4 2 0 3 3 7 4 6 2 4 2 3 6 8 7 2 5 4 6 3 6 3 2 1 2 2 3 8 1 2 1 4 6 15 23 27 31
6 3 2 7 3 7 4 2 0 4 5 4 2 5 7 8 4 5 5 6 9 9 5 6 2 2 9 1 2 1 2 4 4 6 2 3 4 1 0 7 14 18 22 27 29
9 7 5 3 3 4 4 4 5 3 5 3 3 5 5 3 3 4 4 6 17 9 4 3 3 2 2 2 3 1 2 3 3 2 5 2 4 2 11 13 17 18 24 29 29
6 3 7 7 8 5 7 9 8 8 4 10 5 6 6 8 7 4 6 5 11 9 12 9 4 6 7 8 3 4 4 4 4 1 3 4 6 5 9 11 20 18 24 27 27
3 2 0 3 5 11 9 10 13 12 7 9 4 8 7 8 11 13 11 12 12 12 14 4 4 6 11 11 1 2 6 5 5 5 4 5 2 4 7 9 18 16 23 25 27
6 4 2 9 17 13 10 9 14 12 9 11 11 12 9 4 7 10 13 4 8 7 6 6 5 7 7 11 9 6 9 8 5 2 4 3 5 1 16 20 19 14 21 24 27
7 8 5 7 10 9 9 12 11 8 12 13 15 10 10 11 12 12 15 15 8 4 3 4 3 3 8 9 8 6 6 7 3 3 4 1 4 13 10 18 13 17 21 24 28
Wind_Direction
42 39 34 28 23 18 15 12 12 10 6 11 4 3 16 76 62 48 12 0 16 45 48 20 16 311 0 238 232 294 282 253 283 344 37 104 31 333 333 306 309 310 287 303 309
41 32 26 22 19 15 10 7 6 8 9 7 7 10 45 106 107 15 11 358 16 72 45 60 131 271 247 240 198 247 243 263 48 93 320 335 322 322 314 300 299 304 303 330 267
31 26 21 17 15 13 10 9 5 4 3 5 2 17 111 118 108 342 356 349 324 315 58 342 317 274 240 224 210 203 237 315 322 330 331 307 298 294 297 269 274 298 302 304 305
26 21 17 12 9 8 6 2 360 0 2 359 353 16 106 28 325 311 343 352 350 352 18 287 288 261 234 233 215 255 254 271 287 298 314 287 294 288 276 274 280 283 282 283 285
19 13 9 6 4 0 0 358 354 351 351 353 355 72 75 75 309 322 336 351 10 43 20 1 277 267 258 273 279 273 270 275 282 297 294 290 274 269 276 276 275 273 272 272 274
7 5 3 360 357 355 353 350 345 340 344 351 349 127 78 263 285 317 336 358 356 39 39 29 313 312 300 278 285 305 319 308 297 280 275 268 268 269 271 269 276 274 274 278 273
356 355 355 355 353 350 348 344 339 335 340 340 349 141 31 175 353 335 351 18 14 6 107 302 245 227 326 261 320 312 304 280 268 253 245 293 292 231 262 300 287 322 301 268 273
349 348 349 349 349 346 343 339 334 331 336 332 312 90 235 231 272 342 17 208 32 338 322 300 267 252 246 294 315 263 256 266 275 183 210 156 246 298 313 338 339 331 326 323 324
341 341 342 344 343 343 341 340 331 330 348 348 47 78 219 280 345 2 354 1 16 350 351 228 327 254 219 238 278 232 248 238 256 348 346 338 305 341 318 327 322 319 317 312 311
335 336 337 338 340 341 341 339 339 338 6 41 56 238 191 219 325 345 354 328 339 10 254 323 276 232 225 220 240 337 328 321 308 332 329 317 297 311 318 318 317 317 316 314 308
333 331 334 335 336 339 344 356 343 334 328 234 241 259 91 267 33 354 357 10 317 201 360 73 317 240 24 23 354 331 298 291 297 315 305 292 289 299 321 322 320 317 311 333 324
328 327 331 331 334 338 350 26 355 313 309 273 246 185 170 143 251 344 64 137 309 316 2 201 256 62 7 347 334 317 295 288 293 329 322 315 292 294 300 287 282 311 9 358 337
326 327 332 331 333 344 1 7 346 339 268 165 193 189 183 114 49 14 40 358 34 283 71 289 301 54 337 316 292 269 271 294 292 328 306 286 279 274 295 331 334 34 17 7 359
326 332 333 335 336 343 341 343 345 346 280 147 194 163 114 138 135 32 34 30 211 356 346 265 82 9 316 288 303 297 351 336 325 337 270 32 295 284 294 263 21 14 10 4 357
335 337 335 334 312 323 322 335 342 12 325 119 127 151 120 195 103 127 24 316 358 317 142 264 359 325 301 282 306 281 354 315 300 282 315 274 254 285 8 21 6 4 1 359 355
344 340 339 335 331 323 331 334 343 226 249 116 117 162 182 179 135 4 236 74 258 279 244 254 294 230 222 318 340 320 291 314 288 271 264 263 239 343 28 355 351 355 357 354 352
344 339 336 328 245 318 327 42 278 219 112 147 176 182 206 190 188 217 211 108 319 334 219 310 210 189 149 239 284 333 48 320 315 217 228 310 324 39 49 29 4 354 350 350 348
344 333 324 313 315 292 191 231 229 258 74 42 99 164 231 102 190 176 257 204 347 60 311 269 264 160 156 117 242 292 168 193 261 287 325 327 275 98 59 25 11 356 348 347 348
343 330 325 319 305 203 185 227 260 50 35 61 175 237 184 148 234 201 245 226 133 199 198 343 240 74 30 287 117 224 309 142 254 272 276 241 77 152 41 13 4 357 352 349 345
348 348 247 322 270 176 245 254 4 61 78 274 262 259 261 195 180 193 203 133 135 162 132 333 299 283 284 140 230 181 52 2 315 262 273 292 308 350 3 360 357 353 349 341 342
2 308 251 328 184 215 236 257 49 70 62 234 279 285 270 275 317 286 206 143 144 181 189 161 171 279 314 267 225 214 184 243 155 145 222 290 276 173 357 347 336 345 346 339 339
20 293 253 309 254 218 226 77 276 247 204 271 263 279 272 283 293 251 227 173 155 163 193 200 238 278 275 22 315 312 164 137 133 288 294 196 269 261 83 358 356 347 344 339 338
331 278 282 226 260 269 128 201 202 242 226 219 249 226 320 294 299 281 286 189 175 187 187 166 237 288 238 18 328 205 148 115 105 96 228 220 276 109 26 358 347 348 343 338 339
315 307 208 211 266 283 307 310 309 188 274 267 277 295 282 264 254 242 235 218 186 222 226 187 189 203 251 262 149 196 142 124 142 143 294 232 302 339 356 346 340 347 346 337 339
246 284 233 311 310 325 321 307 287 288 230 289 235 233 255 281 288 280 257 236 177 220 224 198 220 251 267 273 252 121 147 156 170 212 164 253 334 354 338 327 329 343 344 338 340
290 294 7 285 288 278 282 280 281 282 277 267 253 262 281 249 226 266 284 280 260 197 185 198 232 265 268 274 236 174 165 169 169 237 282 321 283 300 345 337 320 360 348 339 341
276 285 284 270 289 287 269 265 281 273 277 271 278 260 265 269 318 300 274 258 232 242 235 203 184 210 255 268 270 218 199 172 149 113 149 273 251 352 339 341 41 9 352 342 341
Height
1538 1537 1536 1534 1532 1530 1527 1525 1523 1521 1520 1519 1518 1518 1518 1519 1519 1519 1518 1520 1518 1518 1518 1518 1520 1522 1522 1523 1523 1523 1525 1522 1511 1510 1512 1512 1514 1515 1516 1516 1516 1515 1516 1515 1515
1539 1538 1537 1535 1533 1530 1528 1526 1524 1522 1520 1519 1518 1518 1519 1519 1522 1519 1521 1519 1519 1519 1519 1520 1521 1522 1522 1522 1523 1523 1522 1512 1507 1510 1511 1512 1515 1516 1518 1517 1515 1513 1513 1513 1512
1541 1539 1537 1536 1534 1531 1528 1526 1524 1523 1521 1520 1519 1518 1519 1520 1522 1522 1520 1519 1519 1519 1519 1520 1521 1521 1520 1520 1521 1520 1519 1509 1508 1510 1511 1513 1514 1515 1515 1513 1514 1513 1512 1511 1513
1542 1540 1538 1536 1534 1532 1529 1527 1524 1522 1521 1520 1519 1519 1519 1520 1524 1521 1520 1518 1517 1517 1518 1519 1521 1521 1519 1517 1516 1516 1512 1512 1510 1511 1511 1511 1512 1512 1513 1508 1511 1510 1510 1510 1510
1543 1541 1538 1536 1534 1532 1529 1527 1524 1522 1521 1520 1519 1519 1520 1522 1522 1520 1519 1518 1517 1517 1518 1518 1519 1519 1518 1513 1513 1511 1510 1511 1510 1509 1508 1508 1508 1509 1506 1507 1507 1507 1507 1507 1508
1543 1541 1539 1537 1534 1532 1529 1527 1524 1521 1520 1519 1518 1518 1520 1523 1520 1518 1518 1517 1517 1517 1517 1519 1518 1518 1518 1517 1515 1510 1510 1510 1508 1507 1506 1506 1504 1506 1500 1502 1503 1504 1503 1504 1504
1543 1541 1539 1537 1534 1531 1528 1526 1523 1521 1520 1519 1519 1517 1520 1521 1519 1516 1517 1517 1517 1517 1517 1518 1517 1518 1518 1513 1512 1511 1512 1509 1504 1499 1500 1499 1500 1497 1497 1498 1498 1499 1499 1500 1501
1543 1541 1539 1536 1534 1531 1528 1525 1522 1520 1518 1518 1518 1518 1518 1517 1517 1516 1516 1517 1516 1517 1516 1516 1516 1515 1515 1514 1512 1510 1508 1510 1493 1493 1494 1496 1498 1492 1494 1495 1497 1498 1498 1498 1499
1542 1540 1538 1535 1533 1530 1526 1523 1521 1519 1518 1517 1518 1518 1520 1518 1517 1517 1516 1516 1516 1516 1515 1516 1516 1515 1513 1514 1513 1505 1508 1500 1495 1491 1495 1497 1492 1490 1494 1495 1496 1499 1501 1501 1498
1541 1539 1537 1534 1532 1529 1526 1522 1519 1517 1518 1516 1517 1521 1518 1519 1518 1517 1516 1516 1516 1515 1515 1515 1514 1512 1511 1511 1516 1511 1511 1505 1509 1503 1498 1499 1482 1496 1498 1498 1497 1499 1499 1499 1500
1540 1538 1535 1533 1531 1528 1526 1521 1523 1520 1517 1518 1518 1519 1518 1517 1518 1517 1516 1516 1515 1515 1515 1514 1516 1511 1512 1513 1514 1516 1517 1514 1511 1510 1511 1506 1491 1492 1498 1499 1500 1501 1501 1497 1494
1538 1536 1534 1531 1530 1527 1526 1524 1524 1526 1520 1515 1516 1516 1515 1516 1517 1516 1516 1517 1516 1515 1516 1515 1515 1513 1513 1513 1515 1517 1521 1519 1509 1509 1514 1511 1498 1490 1503 1499 1498 1500 1501 1498 1491
1536 1534 1532 1530 1528 1527 1526 1526 1523 1522 1522 1516 1516 1516 1518 1519 1519 1520 1518 1517 1517 1516 1517 1519 1512 1513 1516 1518 1520 1522 1526 1521 1519 1516 1515 1515 1497 1490 1492 1496 1501 1505 1507 1504 1501
1534 1532 1531 1530 1530 1526 1525 1525 1523 1521 1519 1515 1516 1516 1517 1518 1520 1520 1520 1522 1519 1519 1521 1519 1514 1516 1517 1519 1519 1525 1518 1520 1523 1531 1538 1520 1522 1492 1494 1497 1506 1509 1508 1507 1503
1532 1530 1529 1527 1527 1527 1528 1526 1524 1524 1531 1513 1516 1517 1516 1519 1521 1521 1521 1520 1519 1519 1523 1516 1514 1517 1520 1518 1519 1521 1522 1524 1525 1531 1533 1521 1537 1487 1493 1509 1516 1515 1513 1510 1506
1531 1528 1527 1527 1525 1526 1525 1525 1526 1526 1525 1514 1515 1517 1519 1518 1519 1521 1522 1522 1521 1520 1518 1516 1516 1518 1519 1518 1520 1521 1523 1524 1524 1528 1548 1518 1518 1508 1522 1527 1522 1519 1516 1512 1507
1529 1527 1526 1525 1526 1525 1525 1525 1529 1526 1505 1515 1514 1516 1516 1515 1517 1519 1518 1520 1525 1526 1516 1513 1512 1513 1517 1520 1521 1522 1534 1564 1562 1546 1523 1502 1508 1528 1529 1529 1528 1523 1517 1513 1509
1527 1526 1525 1524 1524 1525 1526 1526 1529 1498 1504 1512 1513 1514 1516 1515 1516 1518 1518 1521 1526 1528 1529 1523 1521 1515 1517 1522 1526 1525 1537 1557 1556 1534 1521 1508 1532 1533 1530 1529 1529 1526 1522 1515 1509
1525 1524 1523 1522 1523 1524 1527 1526 1506 1512 1512 1511 1513 1513 1511 1517 1521 1520 1517 1518 1524 1526 1535 1533 1518 1514 1516 1518 1522 1525 1535 1527 1538 1528 1533 1518 1532 1529 1529 1529 1526 1523 1519 1514 1509
1524 1524 1524 1522 1522 1524 1526 1512 1506 1512 1514 1515 1513 1505 1505 1508 1517 1518 1514 1517 1523 1525 1527 1531 1537 1518 1516 1517 1520 1525 1525 1548 1550 1552 1539 1524 1523 1521 1532 1529 1526 1523 1519 1515 1509
1524 1525 1523 1522 1523 1525 1522 1512 1511 1514 1514 1515 1511 1510 1509 1509 1510 1512 1513 1518 1518 1524 1526 1528 1536 1524 1520 1526 1526 1522 1527 1531 1538 1543 1558 1531 1528 1536 1538 1533 1530 1525 1521 1517 1510
1525 1525 1522 1522 1524 1517 1514 1512 1515 1513 1514 1514 1513 1513 1513 1510 1510 1511 1513 1515 1518 1520 1527 1526 1532 1534 1525 1525 1522 1524 1526 1534 1555 1551 1542 1556 1547 1534 1533 1532 1529 1525 1521 1516 1511
1526 1523 1520 1520 1519 1511 1509 1512 1512 1512 1512 1511 1512 1512 1510 1512 1516 1510 1510 1509 1514 1517 1522 1524 1537 1539 1520 1530 1527 1528 1532 1533 1538 1548 1557 1546 1542 1532 1532 1531 1528 1524 1520 1515 1510
1527 1522 1518 1517 1515 1515 1514 1512 1510 1510 1510 1510 1510 1510 1511 1511 1510 1511 1510 1509 1512 1514 1515 1518 1527 1532 1532 1530 1522 1523 1530 1535 1539 1557 1556 1553 1545 1535 1534 1531 1526 1522 1519 1515 1509
1527 1521 1519 1519 1515 1514 1515 1514 1511 1511 1510 1511 1507 1509 1510 1511 1509 1506 1504 1506 1507 1511 1511 1515 1526 1521 1514 1511 1515 1521 1532 1539 1550 1555 1553 1553 1548 1540 1535 1531 1526 1523 1519 1515 1508
1528 1525 1522 1520 1518 1515 1512 1510 1506 1506 1508 1507 1508 1508 1507 1511 1510 1509 1506 1505 1505 1503 1507 1510 1523 1512 1515 1507 1509 1518 1526 1535 1545 1545 1549 1549 1547 1536 1533 1529 1526 1524 1520 1515 1508
1526 1524 1521 1518 1515 1512 1508 1505 1503 1503 1504 1503 1503 1501 1502 1502 1502 1501 1500 1501 1502 1505 1505 1508 1516 1516 1513 1504 1502 1512 1520 1529 1540 1540 1546 1551 1544 1535 1532 1530 1527 1524 1520 1515 1509